Regional Weather Roundup
Issued by NWS Bismarck, ND

Home | Current Version | Previous Version | Text Only | Print | Product List | Glossary On
Versions: 1 2 3 4 5 6 7 8 9 10 11 12 13 14 15 16 17 18 19 20 21 22 23 24 25 26 27 28 29 30 31 32 33 34 35 36 37 38 39 40 41 42 43 44 45 46 47 48 49 50
000
ASUS43 KBIS 230010
RWRBIS

NWR BROADCAST TEXT
NATIONAL WEATHER SERVICE BISMARCK ND
700 PM CDT WED OCT 22 2014

NOTE: "FAIR" INDICATES FEW OR NO CLOUDS BELOW 12,000 FEET WITH NO
SIGNIFICANT WEATHER AND/OR OBSTRUCTIONS TO VISIBILITY.


CITY           SKY/WX    TMP DP  RH WIND       PRES   REMARKS
WILLISTON      CLEAR     57  36  45 W9        29.82R
MINOT          CLOUDY    58  42  55 SW12      29.80R
MINOT AFB      CLOUDY    56  45  64 W8        29.79R
BISMARCK       CLEAR     60  38  43 W10       29.87R
DICKINSON      CLEAR     50  33  52 W8        29.88R
GARRISON         N/A     58  41  53 W8        29.84R
HETTINGER ARPT CLEAR     50  30  46 W6        29.94R
JAMESTOWN      MOCLDY    52  49  89 S8        29.85S
BEACH            N/A     52  32  46 W10       29.91S
CARRINGTON     FAIR      52  50  93 SW9       29.84R
CROSBY         MOCLDY    52  46  82 W7        29.80S
HARVEY         MOCLDY    57  41  54 W10G16    29.82R
HAZEN          CLOUDY    59  37  44 W7        29.86R
LINTON         FAIR      54  39  58 W6        29.89R
MANDAN         FAIR      54  37  54 W9        29.89R
OAKES            N/A     54  54 100 S8        29.91R
RUGBY          MOCLDY    57  43  58 W15G21    29.79R
STANLEY        CLOUDY    55  41  58 W14G20    29.82R
TIOGA          FAIR      52  41  66 W7        29.85R
$$

CITY           SKY/WX    TMP DP  RH WIND       PRES   REMARKS
GRAND FORKS    CLOUDY    55  53  93 SW6       29.83R
GRAND FORKS AF CLOUDY    55  54  99 SW8       29.84R
DEVILS LAKE    CLOUDY    55  46  71 SW10      29.79R
FARGO          CLOUDY    56  53  90 SW9       29.87R
CANDO          CLOUDY    57  45  62 SW12      29.79R
CAVALIER       FAIR      54  52  94 S8        29.78S
GRAFTON        FAIR      54  54 100 S9        29.81R
GWINNER        MOCLDY    55  55 100 SW8       29.92R
LANGDON        FAIR      50  48  93 SW12      29.78R
ROLLA          CLOUDY    55  43  62 W17G25    29.77S
WALHALLA         N/A     54  54 100 S6        29.78R
$$

CITY           SKY/WX    TMP DP  RH WIND       PRES   REMARKS
ABERDEEN       CLOUDY    53  50  89 S5        29.94R
MOBRIDGE       CLEAR     59  38  45 W8        29.89R
BUFFALO          N/A     54  28  36 W10       29.90R
RAPID CITY     CLEAR     55  34  45 NE6       30.00R
GLASGOW        CLEAR     55  32  41 W8        29.85R
SIDNEY         CLEAR     57  34  41 SW8       29.87R
WOLF POINT     CLEAR     58  33  39 W7        29.85R
GLENDIVE       CLEAR     54  32  43 W8        29.91R
MILES CITY     CLEAR     55  26  32 SW8       29.91S
BAKER          CLEAR     52  30  43 W7        29.94R
$$

CITY           SKY/WX    TMP DP  RH WIND       PRES   REMARKS
BILLINGS       PTCLDY    61  21  21 W12       29.94R
GREAT FALLS    FAIR      56  32  40 SW18      29.86R
REGINA         MOCLDY    50  45  81 W6        29.75S
ESTEVAN        MOCLDY    54  46  76 W9        29.79R
$$




USA.gov is the U.S. government's official web portal to all federal, state and local government web resources and services.